User: anonymous   Login
Location: Unspecified
(0.0000°N, 0.0000°E)
Time: 19:20:45
(UTC+00:00)
Language:

GALILEO-FM3 - Orbit

View from above orbital plane
View from above orbital plane
View from above satellite
View from above satellite

Ground track
Ground track

The orbit data is extracted from the following two-line orbital elements,

1 38857U 12055A   18138.78202928 +.00000055 +00000-0 +00000-0 0  9993
2 38857 054.9063 182.7516 0005158 254.9591 105.0665 01.70473703034848
Epoch (UTC): 18 May 2018 18:46:07
Eccentricity: 0.0005158
inclination: 54.9063°
perigee height: 23207 km
apogee height: 23237 km
right ascension of ascending node: 182.7516°
argument of perigee: 254.9591°
revolutions per day: 1.70473703
mean anomaly at epoch: 105.0665°
orbit number at epoch: 3484

The dashed part of the orbit path shows where the satellite is in the earth's shadow,  

DLR